This is the latest recevied weather packets stored in our database for station/object CE4JVU-10. If no packets are shown the sender has not sent any weather packets the latest 10 day(s).
| Time | Temp. | Humidity | Pressure | Rain* | Wind** | Luminosity | Snow |
|---|---|---|---|---|---|---|---|
| 1777730109 | 15° C | 56% | 983 hPa | - | - | - | - |
| 1777728309 | 15° C | 56% | 982.9 hPa | - | - | - | - |
| 1777726509 | 15° C | 56% | 983.1 hPa | - | - | - | - |
| 1777724709 | 15° C | 55% | 983 hPa | - | - | - | - |
| 1777722909 | 14.44° C | 56% | 982.8 hPa | - | - | - | - |
| 1777721108 | 14.44° C | 56% | 982.7 hPa | - | - | - | - |
| 1777719308 | 15° C | 56% | 982.8 hPa | - | - | - | - |
| 1777717508 | 14.44° C | 56% | 982.8 hPa | - | - | - | - |
| 1777715707 | 14.44° C | 56% | 982.8 hPa | - | - | - | - |
| 1777713908 | 14.44° C | 55% | 982.9 hPa | - | - | - | - |
| 1777712107 | 14.44° C | 55% | 983.1 hPa | - | - | - | - |
| 1777710307 | 14.44° C | 55% | 983.3 hPa | - | - | - | - |
| 1777708507 | 14.44° C | 55% | 983.4 hPa | - | - | - | - |
| 1777706707 | 15° C | 55% | 983.6 hPa | - | - | - | - |
| 1777704907 | 15° C | 55% | 984.2 hPa | - | - | - | - |
| 1777703107 | 15.56° C | 55% | 984.6 hPa | - | - | - | - |
| 1777701306 | 15.56° C | 55% | 984.9 hPa | - | - | - | - |
| 1777699506 | 16.11° C | 55% | 985.2 hPa | - | - | - | - |
| 1777697706 | 16.11° C | 55% | 985.5 hPa | - | - | - | - |
| 1777695908 | 16.11° C | 55% | 985.8 hPa | - | - | - | - |
| 1777694107 | 16.67° C | 55% | 986 hPa | - | - | - | - |
| 1777692307 | 16.67° C | 55% | 986.2 hPa | - | - | - | - |
| 1777690507 | 16.67° C | 55% | 986.4 hPa | - | - | - | - |
| 1777688707 | 17.22° C | 55% | 986.4 hPa | - | - | - | - |
| 1777686907 | 17.22° C | 55% | 986.5 hPa | - | - | - | - |
* Rain since midnight (hover to see other rain measurements)
** Current wind speed in m/s (hover to see current wind gust speed)